Location: Allen Generating Plant
(35.0740°N, 90.1490°W)
Time: 13:03:53
(UTC+00:00)

Vanguard 2 - All Passes

Search period start: 07 November 2024 00:00
Search period end: 17 November 2024 00:00
Orbit: 551 x 2910 km, 32.9° (Epoch: 06 November)

Date Brightness Start Highest point End Pass type
(mag) Time Alt. Az. Time Alt. Az. Time Alt. Az.
07 Nov - 14:49:23 10° SSW 14:56:19 40° SE 15:07:20 10° E daylight
07 Nov - 16:55:52 10° WSW 17:05:29 76° SSE 17:21:07 10° E daylight
07 Nov - 19:04:17 10° W 19:16:53 80° S 19:34:36 10° ESE daylight
07 Nov - 21:14:03 10° W 21:28:58 58° SSW 21:45:59 10° SE daylight
07 Nov - 23:26:39 10° W 23:39:59 28° SW 23:52:55 10° S visible
08 Nov - 13:00:22 10° SSE 13:02:44 12° SE 13:05:25 10° ESE daylight
08 Nov - 15:02:35 10° SW 15:09:42 49° SSE 15:21:24 10° E daylight
08 Nov - 17:09:31 10° WSW 17:19:15 80° S 17:35:03 10° E daylight
08 Nov - 19:18:02 10° W 19:30:44 76° SSW 19:48:23 10° ESE daylight
08 Nov - 21:27:59 10° W 21:42:35 50° SSW 21:59:07 10° SE daylight
08 Nov - 23:41:45 10° W 23:53:18 22° SW 00:04:36 10° S visible
09 Nov - 13:11:44 10° S 13:15:48 18° SE 13:21:08 10° E daylight
09 Nov - 15:15:56 10° SW 15:23:11 58° SSE 15:35:22 10° E daylight
09 Nov - 17:23:13 10° W 17:33:04 81° S 17:49:00 10° E daylight
09 Nov - 19:31:49 10° W 19:44:31 71° SSW 20:02:04 10° ESE daylight
09 Nov - 21:42:01 10° W 21:56:08 43° SSW 22:12:00 10° SSE daylight
09 Nov - 23:57:49 10° WSW 00:06:38 16° SW 00:15:20 10° SSW visible
10 Nov - 13:24:09 10° SSW 13:28:58 24° SE 13:35:48 10° E daylight
10 Nov - 15:29:24 10° WSW 15:36:46 66° SSE 15:49:18 10° E daylight
10 Nov - 17:36:56 10° W 17:46:53 81° S 18:02:54 10° E daylight
10 Nov - 19:45:36 10° W 19:58:16 64° SSW 20:15:34 10° SE daylight
10 Nov - 21:56:15 10° W 22:09:39 36° SW 22:24:35 10° SSE daylight
11 Nov - 00:17:12 10° WSW 00:20:00 11° SW 00:22:48 10° SW visible
11 Nov - 13:37:00 10° SSW 13:42:13 32° SE 13:50:05 10° E daylight
11 Nov - 15:42:58 10° WSW 15:50:25 73° SSE 16:03:13 10° E daylight
11 Nov - 17:50:39 10° W 18:00:41 79° S 18:16:46 10° ESE daylight
11 Nov - 19:59:25 10° W 20:11:58 57° SSW 20:28:54 10° SE daylight
11 Nov - 22:10:47 10° W 22:23:08 29° SW 22:36:46 10° SSE daylight
12 Nov - 13:50:07 10° SW 13:55:34 41° SSE 14:04:09 10° E daylight
12 Nov - 15:56:35 10° WSW 16:04:08 77° S 16:17:08 10° E daylight
12 Nov - 18:04:21 10° W 18:14:29 74° S 18:30:33 10° ESE daylight
12 Nov - 20:13:18 10° W 20:25:39 49° SSW 20:42:01 10° SE daylight
12 Nov - 22:25:46 10° W 22:36:37 22° SW 22:48:25 10° S daylight
13 Nov - 12:00:26 10° SSE 12:02:08 11° SE 12:04:01 10° ESE visible
13 Nov - 14:03:26 10° SW 14:09:00 51° SSE 14:18:06 10° E daylight
13 Nov - 16:10:14 10° W 16:17:53 80° S 16:31:02 10° E daylight
13 Nov - 18:18:05 10° W 18:28:14 68° SSW 18:44:13 10° ESE daylight
13 Nov - 20:27:18 10° W 20:39:17 41° SSW 20:54:52 10° SSE daylight
13 Nov - 22:41:42 10° WSW 22:50:07 16° SW 22:59:05 10° S daylight
14 Nov - 12:12:06 10° S 12:15:20 17° SE 12:19:22 10° E daylight
14 Nov - 14:16:52 10° WSW 14:22:32 60° SSE 14:32:00 10° E daylight
14 Nov - 16:23:54 10° W 16:31:38 79° S 16:44:55 10° E daylight
14 Nov - 18:31:49 10° W 18:41:59 61° SSW 18:57:43 10° SE daylight
14 Nov - 20:41:30 10° W 20:52:54 34° SSW 21:07:23 10° SSE daylight
14 Nov - 23:00:45 10° SW 23:03:40 11° SW 23:06:38 10° SSW daylight
15 Nov - 12:24:45 10° SSW 12:28:36 24° SE 12:33:47 10° E daylight
15 Nov - 14:30:23 10° WSW 14:36:09 68° SSE 14:45:52 10° E daylight
15 Nov - 16:37:35 10° W 16:45:23 76° S 16:58:45 10° ESE daylight
15 Nov - 18:45:36 10° W 18:55:41 53° SSW 19:11:02 10° SE daylight
15 Nov - 20:56:00 10° W 21:06:31 27° SW 21:19:29 10° SSE daylight
16 Nov - 12:37:46 10° SW 12:41:56 33° SSE 12:47:53 10° E daylight
16 Nov - 14:43:58 10° WSW 14:49:49 74° S 14:59:43 10° E daylight
16 Nov - 16:51:15 10° W 16:59:07 71° S 17:12:30 10° ESE daylight
16 Nov - 18:59:27 10° W 19:09:23 45° SSW 19:24:07 10° SE daylight
16 Nov - 21:11:00 10° WSW 21:20:08 20° SW 21:30:59 10° S daylight
